Погода в Верх-Катунском

Россия / Алтайский край     52°27′01″N   85°26′03″E
темп.,
°C
ветер,
м/с
пор.,
м/с
влажн.,
%
обл.,
%
осадки,
мм/ч
давл.,
гПа
погр.,
м
24 июня, чт
чт2401:00+10в479066 0.0 1009109
04:00+8вюв3993100 0.0 1005152
07:00+10всв4892100 0.9 1003156
10:00+12зюз4786100 0.2 1003414
13:00+13зсз2587100 1.1 1005618
16:00+15вюв228224 3.4 1005587
19:00+15ссз11765 8.3 1005327
22:00+10св33895 0.8 100634
25 июня, пт
пт2501:00+9вюв019497 1.3 100511
04:00+10юз159245 1.4 1005147
07:00+10юз8148398 1.4 10061187
10:00+10юз71392100 0.4 1008798
13:00+11зюз61191100 0.9 1010800
16:00+11зюз5109182 0.8 1012675
19:00+13сз578674 1.4 1013644
22:00+9ю119174 0.0 101511
26 июня, сб
сб2601:00+8юв3394100 0.0 101540
04:00+7вюв11935 0.0 101510
07:00+9юв1290100 0.0 101496
10:00+14ююв1177100 0.0 1014511
13:00+17с2262100 0.0 10131107
16:00+18ссз225799 0.0 10131389
19:00+18зсз015913 0.1 10131113
22:00+12зюз22814 0.3 101511
27 июня, вс
вс2701:00+9юз22915 0.3 101623
04:00+8юз339447 0.0 101640
07:00+10зюз238852 0.0 1017109
10:00+15зюз34733 0.0 1016547
13:00+19з45643 0.4 10151307
16:00+20зюз455690 0.4 10142023
19:00+19зсз2467100 0.4 1014713
22:00+13ю1178100 0.0 101410
28 июня, пн
пн2801:00+13юв2277100 0.0 101312
04:00+11вюв2287100 0.0 101217
07:00+13вюв3586100 0.0 1011149
10:00+17юв2272100 0.0 1010325
13:00+17ююв2478100 0.0 1009178
16:00+18вюв2274100 0.0 100826
19:00+15вюв3687100 0.1 1006141
22:00+14ю2293100 0.7 100641